Home > Weather > Grand Prairie > Past weeks

Flag for U.S.A. Weather for the Past 2 Weeks in Grand Prairie, Texas, U.S.A.

Now
59 °F

Clear.


Feels Like: 59 °F
Forecast: 42 / 59 °F
Wind: 3 mph from Northeast

Location: Grand Prairie Municipal Airport

Current Time: Feb 12, 2016 at 8:39:35 PM

Latest Report: Feb 12, 2016 at 7:55 PM


Visibility: 10 mi

Pressure: 30.33 "Hg

Humidity: 44%

Dew point: 36 °F

Location of Grand PrairieLocation

Historic Weather in Grand Prairie — Graph

°F

Grand Prairie Temperature Yesterday

Maximum temperature yesterday: 75 °F (at 2:50 PM)
Minimum temperature yesterday: 45 °F (at 7:50 AM)
Average temperature yesterday: 56 °F

High & Low Weather Summary for the Past Weeks

 TemperatureHumidityPressure
High75 °F (Jan 29, 1:50 PM)100% (Jan 31, 3:35 AM)30.53 "Hg (Jan 31, 3:35 AM)
Low32 °F (Feb 4, 7:50 AM)13% (Feb 8, 3:50 PM)29.53 "Hg (Feb 1, 9:55 PM)
Average51 °F49%30.11 "Hg
* Reported Jan 28 4:50 PM — Feb 12 4:50 PM, Grand Prairie, Weather by CustomWeather, © 2016

Note: Actual official high and low records may vary slightly from our data, if they occured in-between our weather recording intervals... More about our weather records

Advertising

Grand Prairie Weather History for the Previous 24 Hours

 ConditionsComfort  
Time TempWeatherWind HumidityBarometerVisibility
4:50 PM
Fri, Feb 12
68 °FSunny.10 mph30%30.28 "Hg10 mi
3:50 PM70 °FSunny.8 mph27%30.27 "Hg10 mi
11:50 AM63 °FSunny.7 mph37%30.31 "Hg10 mi
10:50 AM57 °FSunny.7 mph48%30.32 "Hg10 mi
9:50 AM54 °FSunny.7 mph54%30.30 "Hg10 mi
8:50 AM48 °FSunny.7 mph66%30.28 "Hg10 mi
7:50 AM46 °FSunny.6 mph66%30.24 "Hg10 mi
5:35 AM46 °FClear.8 mph66%30.18 "Hg10 mi
5:15 AM47 °FClear.8 mph64%30.18 "Hg10 mi
4:55 AM49 °FClear.9 mph58%30.17 "Hg10 mi
4:15 AM49 °FClear.3 mph57%30.16 "Hg10 mi
3:55 AM48 °FClear.6 mph58%30.16 "Hg10 mi
3:35 AM48 °FClear.6 mph59%30.16 "Hg10 mi
3:15 AM51 °FClear.6 mph53%30.15 "Hg10 mi
2:55 AM50 °FClear.6 mph54%30.15 "Hg10 mi
2:35 AM50 °FClear.7 mph55%30.15 "Hg10 mi
2:15 AM50 °FClear.6 mph56%30.15 "Hg10 mi
1:55 AM50 °FClear.7 mph58%30.15 "Hg10 mi
1:15 AM52 °FClear.6 mph54%30.14 "Hg10 mi
12:55 AM53 °FClear.6 mph52%30.14 "Hg10 mi
12:35 AM53 °FClear.6 mph53%30.14 "Hg10 mi
12:15 AM53 °FClear.8 mph54%30.14 "Hg10 mi
11:55 PM
Thu, Feb 11
54 °FClear.9 mph55%30.14 "Hg10 mi
11:35 PM55 °FClear.8 mph52%30.13 "Hg10 mi
10:55 PM56 °FClear.8 mph50%30.13 "Hg10 mi
10:35 PM56 °FClear.7 mph49%30.13 "Hg10 mi
10:15 PM54 °FClear.5 mph54%30.12 "Hg10 mi
9:55 PM59 °FClear.No wind43%30.12 "Hg10 mi
9:35 PM58 °FClear.3 mph45%30.12 "Hg10 mi
8:55 PM58 °FClear.3 mph44%30.13 "Hg10 mi
8:35 PM59 °FClear.5 mph39%30.12 "Hg10 mi
Weather by CustomWeather, © 2016

See weather overviewHow to use our weather pages